Find INTELSAT III F-7

NORAD ID: 4376 Int'l Des: 1970-032 Owner: INTEL Country: I-INT operational
MEOCIRCULAR

Current View

Loading 3D Globe...

About INTELSAT III F-7

Description loading...

Upcoming Passes

Passes for default location (London). Set your location on the main map for personalized predictions.

Altitude History

Loading altitude history...

Two-Line Element Set

1 4376U 70032A 26149.19748851 -.00000322 00000-0 00000+0 0 9994
2 4376 2.3800 88.1057 0003080 239.1903 120.3218 1.00325424 47179
Epoch: May 29, 2026 • Age: 20 hours

Current Status

Altitude 35764.0 km
Velocity 3.08 km/s
Sub-Earth Point -2.16°S, 129.99°E
Type communications

Most Searched